Wetterdaten: Sonntag, 19.04.2015
Datum Zeit Temp. A. Feuchte A. Luftdruck Regen Wind Richtung Richtung Sonnenschein ET UV Solar Taupunkt Windchill Windben Empfang
19.04.2015 00:00 4,7 C 77 % 1024,3 hPa 0,0 l/m 0,0 km/h (0 Bft) W-SW 256 0 min 0,000 mm 0,0 UV-I 0 W/m 1,0 C 4,7 C 0,0 km/h (0 Bft) 0,00 %
19.04.2015 00:15 4,5 C 78 % 1024,3 hPa 0,0 l/m 0,0 km/h (0 Bft) S 188 0 min 0,000 mm 0,0 UV-I 0 W/m 1,0 C 4,5 C 0,0 km/h (0 Bft) 0,00 %
19.04.2015 00:30 4,3 C 81 % 1024,4 hPa 0,0 l/m 0,0 km/h (0 Bft) S-SW 197 0 min 0,000 mm 0,0 UV-I 0 W/m 1,3 C 4,3 C 0,0 km/h (0 Bft) 0,00 %
19.04.2015 00:45 3,9 C 83 % 1024,4 hPa 0,0 l/m 0,0 km/h (0 Bft) S-SW 210 0 min 0,000 mm 0,0 UV-I 0 W/m 1,3 C 3,9 C 0,0 km/h (0 Bft) 0,00 %
19.04.2015 01:00 3,5 C 86 % 1024,3 hPa 0,0 l/m 0,0 km/h (0 Bft) S-SW 210 0 min 0,000 mm 0,0 UV-I 0 W/m 1,4 C 3,5 C 0,0 km/h (0 Bft) 0,00 %
19.04.2015 01:15 3,2 C 88 % 1024,5 hPa 0,0 l/m 0,0 km/h (0 Bft) S-SW 211 0 min 0,000 mm 0,0 UV-I 0 W/m 1,4 C 3,2 C 0,0 km/h (0 Bft) 0,00 %
19.04.2015 01:30 3,1 C 88 % 1024,5 hPa 0,0 l/m 0,0 km/h (0 Bft) S-SW 211 0 min 0,000 mm 0,0 UV-I 0 W/m 1,3 C 3,1 C 0,0 km/h (0 Bft) 0,00 %
19.04.2015 01:45 2,9 C 84 % 1024,4 hPa 0,0 l/m 0,0 km/h (0 Bft) S-SW 211 0 min 0,000 mm 0,0 UV-I 0 W/m 0,5 C 2,9 C 0,0 km/h (0 Bft) 0,00 %
19.04.2015 02:00 2,5 C 86 % 1024,3 hPa 0,0 l/m 0,0 km/h (0 Bft) S-SW 211 0 min 0,000 mm 0,0 UV-I 0 W/m 0,4 C 2,5 C 0,0 km/h (0 Bft) 0,00 %
19.04.2015 02:15 2,3 C 92 % 1024,2 hPa 0,0 l/m 0,0 km/h (0 Bft) S-SW 211 0 min 0,000 mm 0,0 UV-I 0 W/m 1,1 C 2,3 C 0,0 km/h (0 Bft) 0,00 %
19.04.2015 02:30 2,4 C 91 % 1024,1 hPa 0,0 l/m 0,0 km/h (0 Bft) S-SW 211 0 min 0,000 mm 0,0 UV-I 0 W/m 1,1 C 2,4 C 0,0 km/h (0 Bft) 0,00 %
19.04.2015 02:45 2,6 C 90 % 1023,7 hPa 0,0 l/m 0,0 km/h (0 Bft) S-SW 211 0 min 0,000 mm 0,0 UV-I 0 W/m 1,1 C 2,6 C 0,0 km/h (0 Bft) 0,00 %
19.04.2015 03:00 2,5 C 89 % 1023,6 hPa 0,0 l/m 0,0 km/h (0 Bft) S-SW 211 0 min 0,000 mm 0,0 UV-I 0 W/m 0,9 C 2,5 C 0,0 km/h (0 Bft) 0,00 %
19.04.2015 03:15 2,3 C 84 % 1023,7 hPa 0,0 l/m 0,0 km/h (0 Bft) S-SW 211 0 min 0,000 mm 0,0 UV-I 0 W/m -0,1 C 2,3 C 0,0 km/h (0 Bft) 0,00 %
19.04.2015 03:30 1,7 C 87 % 1023,7 hPa 0,0 l/m 0,0 km/h (0 Bft) S-SW 211 0 min 0,000 mm 0,0 UV-I 0 W/m -0,2 C 1,7 C 0,0 km/h (0 Bft) 0,00 %
19.04.2015 03:45 1,2 C 88 % 1023,8 hPa 0,0 l/m 0,0 km/h (0 Bft) S-SW 211 0 min 0,000 mm 0,0 UV-I 0 W/m -0,6 C 1,2 C 0,0 km/h (0 Bft) 0,00 %
19.04.2015 04:00 1,0 C 90 % 1023,8 hPa 0,0 l/m 0,0 km/h (0 Bft) S-SW 211 0 min 0,000 mm 0,0 UV-I 0 W/m -0,5 C 1,0 C 0,0 km/h (0 Bft) 0,00 %
19.04.2015 04:15 1,2 C 91 % 1023,8 hPa 0,0 l/m 0,0 km/h (0 Bft) S 177 0 min 0,000 mm 0,0 UV-I 0 W/m -0,1 C 1,2 C 0,0 km/h (0 Bft) 0,00 %
19.04.2015 04:30 1,0 C 91 % 1023,6 hPa 0,0 l/m 0,0 km/h (0 Bft) S-SW 210 0 min 0,000 mm 0,0 UV-I 0 W/m -0,3 C 1,0 C 0,0 km/h (0 Bft) 0,00 %
19.04.2015 04:45 0,6 C 93 % 1023,9 hPa 0,0 l/m 0,0 km/h (0 Bft) S-SW 210 0 min 0,000 mm 0,0 UV-I 0 W/m -0,4 C 0,6 C 0,0 km/h (0 Bft) 0,00 %
19.04.2015 05:00 0,3 C 93 % 1023,6 hPa 0,0 l/m 0,0 km/h (0 Bft) S-SW 203 0 min 0,000 mm 0,0 UV-I 0 W/m -0,7 C 0,3 C 0,0 km/h (0 Bft) 0,00 %
19.04.2015 05:15 0,1 C 93 % 1023,6 hPa 0,0 l/m 0,0 km/h (0 Bft) S-SW 203 0 min 0,000 mm 0,0 UV-I 0 W/m -0,9 C 0,1 C 0,0 km/h (0 Bft) 0,00 %
19.04.2015 05:30 0,0 C 94 % 1023,7 hPa 0,0 l/m 0,0 km/h (0 Bft) S-SW 203 0 min 0,000 mm 0,0 UV-I 0 W/m -0,8 C 0,0 C 0,0 km/h (0 Bft) 0,00 %
19.04.2015 05:45 -0,1 C 94 % 1023,7 hPa 0,0 l/m 0,0 km/h (0 Bft) S-SW 203 0 min 0,000 mm 0,0 UV-I 0 W/m -0,9 C -0,1 C 0,0 km/h (0 Bft) 0,00 %
19.04.2015 06:00 -0,3 C 95 % 1023,4 hPa 0,0 l/m 0,0 km/h (0 Bft) S-SW 203 0 min 0,000 mm 0,0 UV-I 0 W/m -1,0 C -0,3 C 0,0 km/h (0 Bft) 0,00 %
19.04.2015 06:15 -0,5 C 94 % 1023,4 hPa 0,0 l/m 0,0 km/h (0 Bft) S-SW 203 0 min 0,000 mm 0,0 UV-I 1 W/m -1,3 C -0,5 C 0,0 km/h (0 Bft) 0,00 %
19.04.2015 06:30 -0,1 C 95 % 1023,0 hPa 0,0 l/m 0,0 km/h (0 Bft) S-SW 203 15 min 0,000 mm 0,0 UV-I 32 W/m -0,8 C -0,1 C 0,0 km/h (0 Bft) 0,00 %
19.04.2015 06:45 1,2 C 94 % 1023,0 hPa 0,0 l/m 0,0 km/h (0 Bft) S-SW 203 15 min 0,000 mm 0,0 UV-I 86 W/m 0,3 C 1,2 C 0,0 km/h (0 Bft) 0,00 %
19.04.2015 07:00 2,0 C 93 % 1023,1 hPa 0,0 l/m 0,0 km/h (0 Bft) S-SW 204 15 min 0,000 mm 1,0 UV-I 143 W/m 1,0 C 2,0 C 0,0 km/h (0 Bft) 0,00 %
19.04.2015 07:15 2,7 C 94 % 1023,1 hPa 0,0 l/m 0,0 km/h (0 Bft) S-SW 203 15 min 0,000 mm 1,0 UV-I 167 W/m 1,8 C 2,7 C 0,0 km/h (0 Bft) 0,00 %
19.04.2015 07:30 3,4 C 86 % 1023,2 hPa 0,0 l/m 0,0 km/h (0 Bft) S-SW 192 15 min 0,000 mm 1,0 UV-I 171 W/m 1,3 C 3,4 C 0,0 km/h (0 Bft) 0,00 %
19.04.2015 07:45 3,2 C 86 % 1023,0 hPa 0,0 l/m 0,0 km/h (0 Bft) O-NO 59 15 min 0,000 mm 1,0 UV-I 167 W/m 1,1 C 3,2 C 0,0 km/h (0 Bft) 0,00 %
19.04.2015 08:00 3,4 C 85 % 1022,9 hPa 0,0 l/m 0,0 km/h (0 Bft) O-SO 116 15 min 0,000 mm 1,0 UV-I 183 W/m 1,1 C 3,4 C 0,0 km/h (0 Bft) 0,00 %
19.04.2015 08:15 4,2 C 82 % 1022,8 hPa 0,0 l/m 0,0 km/h (0 Bft) O-SO 102 15 min 0,000 mm 1,0 UV-I 195 W/m 1,4 C 4,2 C 0,0 km/h (0 Bft) 0,00 %
19.04.2015 08:30 5,0 C 79 % 1022,8 hPa 0,0 l/m 0,0 km/h (0 Bft) SO 135 0 min 0,000 mm 2,0 UV-I 206 W/m 1,7 C 5,0 C 0,0 km/h (0 Bft) 0,00 %
19.04.2015 08:45 5,6 C 74 % 1022,8 hPa 0,0 l/m 1,8 km/h (1 Bft) SO 132 0 min 0,000 mm 2,0 UV-I 228 W/m 1,3 C 5,6 C 4,0 km/h (1 Bft) 0,00 %
19.04.2015 09:00 5,9 C 71 % 1021,3 hPa 0,0 l/m 0,0 km/h (0 Bft) SO 138 0 min 0,000 mm 2,0 UV-I 250 W/m 1,1 C 5,9 C 0,0 km/h (0 Bft) 0,00 %
19.04.2015 09:15 6,9 C 64 % 1020,9 hPa 0,0 l/m 2,2 km/h (1 Bft) S-SO 166 0 min 0,000 mm 2,0 UV-I 272 W/m 0,6 C 6,9 C 7,9 km/h (2 Bft) 0,00 %
19.04.2015 09:30 7,0 C 63 % 1021,1 hPa 0,0 l/m 2,2 km/h (1 Bft) S-SO 147 15 min 0,000 mm 2,0 UV-I 294 W/m 0,4 C 7,0 C 7,9 km/h (2 Bft) 0,00 %
19.04.2015 09:45 7,4 C 63 % 1021,2 hPa 0,0 l/m 1,8 km/h (1 Bft) O 100 15 min 0,000 mm 3,0 UV-I 323 W/m 0,8 C 7,4 C 4,0 km/h (1 Bft) 0,00 %
19.04.2015 10:00 7,1 C 65 % 1021,0 hPa 0,0 l/m 5,8 km/h (2 Bft) O-NO 78 15 min 0,000 mm 3,0 UV-I 344 W/m 1,0 C 7,1 C 7,9 km/h (2 Bft) 0,00 %
19.04.2015 10:15 7,7 C 56 % 1020,8 hPa 0,0 l/m 4,3 km/h (1 Bft) O-NO 70 15 min 0,000 mm 3,0 UV-I 372 W/m -0,5 C 7,7 C 7,9 km/h (2 Bft) 0,00 %
19.04.2015 10:30 8,5 C 52 % 1020,6 hPa 0,0 l/m 4,0 km/h (1 Bft) SO 135 15 min 0,000 mm 4,0 UV-I 408 W/m -0,8 C 8,5 C 7,9 km/h (2 Bft) 0,00 %
19.04.2015 10:45 8,6 C 46 % 1020,5 hPa 0,0 l/m 1,8 km/h (1 Bft) N-NW 336 15 min 0,000 mm 4,0 UV-I 425 W/m -2,4 C 8,6 C 4,0 km/h (1 Bft) 0,00 %
19.04.2015 11:00 8,3 C 48 % 1020,6 hPa 0,0 l/m 15,8 km/h (3 Bft) O 91 15 min 0,000 mm 4,0 UV-I 459 W/m -2,1 C 2,7 C 19,8 km/h (3 Bft) 0,00 %
19.04.2015 11:15 8,5 C 47 % 1020,3 hPa 0,0 l/m 6,8 km/h (2 Bft) O-NO 73 15 min 0,000 mm 4,0 UV-I 499 W/m -2,2 C 8,2 C 7,9 km/h (2 Bft) 0,00 %
19.04.2015 11:30 9,0 C 47 % 1020,2 hPa 0,0 l/m 6,8 km/h (2 Bft) S 182 15 min 0,000 mm 4,0 UV-I 512 W/m -1,7 C 8,7 C 15,8 km/h (3 Bft) 0,00 %
19.04.2015 11:45 9,0 C 43 % 1020,1 hPa 0,0 l/m 4,3 km/h (1 Bft) SO 144 15 min 0,000 mm 5,0 UV-I 552 W/m -2,9 C 9,0 C 7,9 km/h (2 Bft) 0,00 %
19.04.2015 12:00 9,6 C 43 % 1020,0 hPa 0,0 l/m 3,2 km/h (1 Bft) S-SO 155 15 min 0,000 mm 5,0 UV-I 588 W/m -2,4 C 9,6 C 4,0 km/h (1 Bft) 0,00 %
19.04.2015 12:15 9,5 C 48 % 1019,9 hPa 0,0 l/m 9,4 km/h (2 Bft) O 81 15 min 0,000 mm 5,0 UV-I 618 W/m -1,0 C 7,4 C 11,9 km/h (2 Bft) 0,00 %
19.04.2015 12:30 9,9 C 44 % 1019,7 hPa 0,0 l/m 1,8 km/h (1 Bft) O-SO 110 15 min 0,000 mm 5,0 UV-I 577 W/m -1,8 C 9,9 C 7,9 km/h (2 Bft) 0,00 %
19.04.2015 12:45 9,8 C 45 % 1019,6 hPa 0,0 l/m 9,4 km/h (2 Bft) O-SO 109 15 min 0,000 mm 5,0 UV-I 634 W/m -1,6 C 7,7 C 15,8 km/h (3 Bft) 0,00 %
19.04.2015 13:00 9,8 C 43 % 1019,6 hPa 0,0 l/m 15,5 km/h (3 Bft) O 96 15 min 0,000 mm 5,0 UV-I 649 W/m -2,2 C 4,7 C 19,8 km/h (3 Bft) 0,00 %
19.04.2015 13:15 10,3 C 46 % 1019,2 hPa 0,0 l/m 0,4 km/h (0 Bft) NO 34 15 min 0,000 mm 5,0 UV-I 667 W/m -0,8 C 10,3 C 4,0 km/h (1 Bft) 0,00 %
19.04.2015 13:30 10,3 C 44 % 1018,8 hPa 0,0 l/m 5,4 km/h (1 Bft) O-SO 106 15 min 0,000 mm 5,0 UV-I 669 W/m -1,4 C 10,3 C 7,9 km/h (2 Bft) 0,00 %
19.04.2015 13:45 10,6 C 42 % 1018,9 hPa 0,0 l/m 11,9 km/h (2 Bft) O-SO 113 15 min 0,000 mm 5,0 UV-I 680 W/m -1,8 C 7,3 C 15,8 km/h (3 Bft) 0,00 %
19.04.2015 14:00 10,9 C 42 % 1018,4 hPa 0,0 l/m 8,3 km/h (2 Bft) NO 36 15 min 0,000 mm 5,0 UV-I 691 W/m -1,5 C 9,6 C 11,9 km/h (2 Bft) 0,00 %
19.04.2015 14:15 11,5 C 40 % 1018,1 hPa 0,0 l/m 4,7 km/h (1 Bft) O 89 15 min 0,000 mm 5,0 UV-I 710 W/m -1,6 C 11,5 C 7,9 km/h (2 Bft) 0,00 %
19.04.2015 14:30 11,4 C 43 % 1018,0 hPa 0,0 l/m 8,3 km/h (2 Bft) N 354 15 min 0,000 mm 5,0 UV-I 719 W/m -0,7 C 10,1 C 11,9 km/h (2 Bft) 0,00 %
19.04.2015 14:45 11,7 C 41 % 1017,6 hPa 0,0 l/m 4,3 km/h (1 Bft) O-NO 69 15 min 0,000 mm 3,0 UV-I 726 W/m -1,1 C 11,7 C 7,9 km/h (2 Bft) 0,00 %
19.04.2015 15:00 11,9 C 40 % 1017,6 hPa 0,0 l/m 6,8 km/h (2 Bft) O-SO 122 15 min 0,000 mm 2,0 UV-I 725 W/m -1,3 C 11,6 C 7,9 km/h (2 Bft) 0,00 %
19.04.2015 15:15 12,1 C 41 % 1017,5 hPa 0,0 l/m 9,7 km/h (2 Bft) O-SO 116 15 min 0,000 mm 2,0 UV-I 727 W/m -0,7 C 10,1 C 11,9 km/h (2 Bft) 0,00 %
19.04.2015 15:30 12,3 C 38 % 1017,3 hPa 0,0 l/m 4,0 km/h (1 Bft) O-NO 58 15 min 0,000 mm 2,0 UV-I 722 W/m -1,6 C 12,3 C 7,9 km/h (2 Bft) 0,00 %
19.04.2015 15:45 12,4 C 38 % 1017,3 hPa 0,0 l/m 4,0 km/h (1 Bft) O 85 15 min 0,000 mm 2,0 UV-I 709 W/m -1,5 C 12,4 C 4,0 km/h (1 Bft) 0,00 %
19.04.2015 16:00 12,5 C 42 % 1017,2 hPa 0,0 l/m 10,4 km/h (2 Bft) O 84 15 min 0,000 mm 2,0 UV-I 707 W/m -0,1 C 10,2 C 15,8 km/h (3 Bft) 0,00 %
19.04.2015 16:15 12,2 C 38 % 1017,1 hPa 0,0 l/m 6,8 km/h (2 Bft) O 97 15 min 0,000 mm 2,0 UV-I 691 W/m -1,7 C 11,9 C 7,9 km/h (2 Bft) 0,00 %
19.04.2015 16:30 12,3 C 35 % 1016,9 hPa 0,0 l/m 9,0 km/h (2 Bft) O-SO 107 15 min 0,000 mm 2,0 UV-I 679 W/m -2,7 C 10,7 C 11,9 km/h (2 Bft) 0,00 %
19.04.2015 16:45 12,4 C 43 % 1017,0 hPa 0,0 l/m 9,0 km/h (2 Bft) O-NO 78 15 min 0,000 mm 2,0 UV-I 558 W/m 0,2 C 10,8 C 11,9 km/h (2 Bft) 0,00 %
19.04.2015 17:00 12,2 C 41 % 1016,8 hPa 0,0 l/m 3,2 km/h (1 Bft) O-NO 72 0 min 0,000 mm 1,0 UV-I 122 W/m -0,7 C 12,2 C 7,9 km/h (2 Bft) 0,00 %
19.04.2015 17:15 12,6 C 39 % 1017,0 hPa 0,0 l/m 7,2 km/h (2 Bft) NO 42 15 min 0,000 mm 1,0 UV-I 606 W/m -1,0 C 12,1 C 11,9 km/h (2 Bft) 0,00 %
19.04.2015 17:30 12,7 C 39 % 1017,1 hPa 0,0 l/m 1,8 km/h (1 Bft) NO 45 15 min 0,000 mm 1,0 UV-I 594 W/m -0,9 C 12,7 C 4,0 km/h (1 Bft) 0,00 %
19.04.2015 17:45 12,8 C 39 % 1017,2 hPa 0,0 l/m 6,8 km/h (2 Bft) O-NO 78 15 min 0,000 mm 1,0 UV-I 573 W/m -0,8 C 12,6 C 11,9 km/h (2 Bft) 0,00 %
19.04.2015 18:00 13,0 C 39 % 1017,3 hPa 0,0 l/m 9,4 km/h (2 Bft) O 98 15 min 0,000 mm 1,0 UV-I 544 W/m -0,6 C 11,2 C 11,9 km/h (2 Bft) 0,00 %
19.04.2015 18:15 12,8 C 42 % 1017,5 hPa 0,0 l/m 7,2 km/h (2 Bft) O-SO 110 15 min 0,000 mm 1,0 UV-I 501 W/m 0,2 C 12,3 C 7,9 km/h (2 Bft) 0,00 %
19.04.2015 18:30 12,5 C 39 % 1017,6 hPa 0,0 l/m 4,3 km/h (1 Bft) SO 135 15 min 0,000 mm 1,0 UV-I 457 W/m -1,1 C 12,5 C 7,9 km/h (2 Bft) 0,00 %
19.04.2015 18:45 12,3 C 44 % 1017,6 hPa 0,0 l/m 0,7 km/h (0 Bft) SO 142 15 min 0,000 mm 1,0 UV-I 399 W/m 0,4 C 12,3 C 4,0 km/h (1 Bft) 0,00 %
19.04.2015 19:00 12,1 C 41 % 1017,9 hPa 0,0 l/m 0,0 km/h (0 Bft) SO 145 15 min 0,000 mm 1,0 UV-I 326 W/m -0,7 C 12,1 C 0,0 km/h (0 Bft) 0,00 %
19.04.2015 19:15 12,1 C 41 % 1018,2 hPa 0,0 l/m 0,0 km/h (0 Bft) SO 136 15 min 0,000 mm 0,0 UV-I 233 W/m -0,7 C 12,1 C 0,0 km/h (0 Bft) 0,00 %
19.04.2015 19:30 12,0 C 41 % 1018,3 hPa 0,0 l/m 0,0 km/h (0 Bft) S 175 15 min 0,000 mm 0,0 UV-I 85 W/m -0,8 C 12,0 C 0,0 km/h (0 Bft) 0,00 %
19.04.2015 19:45 11,0 C 51 % 1018,6 hPa 0,0 l/m 0,0 km/h (0 Bft) S 173 15 min 0,000 mm 0,0 UV-I 19 W/m 1,3 C 11,0 C 0,0 km/h (0 Bft) 0,00 %
19.04.2015 20:00 10,1 C 51 % 1018,9 hPa 0,0 l/m 0,0 km/h (0 Bft) SO 134 0 min 0,000 mm 0,0 UV-I 2 W/m 0,4 C 10,1 C 0,0 km/h (0 Bft) 0,00 %
19.04.2015 20:15 9,6 C 51 % 1019,0 hPa 0,0 l/m 0,0 km/h (0 Bft) SO 146 0 min 0,000 mm 0,0 UV-I 0 W/m -0,0 C 9,6 C 0,0 km/h (0 Bft) 0,00 %
19.04.2015 20:30 9,6 C 50 % 1019,3 hPa 0,0 l/m 0,0 km/h (0 Bft) S 182 0 min 0,000 mm 0,0 UV-I 0 W/m -0,3 C 9,6 C 0,0 km/h (0 Bft) 0,00 %
19.04.2015 20:45 9,1 C 63 % 1019,6 hPa 0,0 l/m 0,0 km/h (0 Bft) S-SW 197 0 min 0,000 mm 0,0 UV-I 0 W/m 2,4 C 9,1 C 0,0 km/h (0 Bft) 0,00 %
19.04.2015 21:00 8,0 C 67 % 1020,2 hPa 0,0 l/m 0,0 km/h (0 Bft) S 183 0 min 0,000 mm 0,0 UV-I 0 W/m 2,3 C 8,0 C 0,0 km/h (0 Bft) 0,00 %
19.04.2015 21:15 7,1 C 64 % 1020,4 hPa 0,0 l/m 0,0 km/h (0 Bft) S 186 0 min 0,000 mm 0,0 UV-I 0 W/m 0,8 C 7,1 C 0,0 km/h (0 Bft) 0,00 %
19.04.2015 21:30 7,3 C 64 % 1020,6 hPa 0,0 l/m 0,0 km/h (0 Bft) S 173 0 min 0,000 mm 0,0 UV-I 0 W/m 1,0 C 7,3 C 0,0 km/h (0 Bft) 0,00 %
19.04.2015 21:45 7,2 C 64 % 1020,7 hPa 0,0 l/m 0,0 km/h (0 Bft) S 183 0 min 0,000 mm 0,0 UV-I 0 W/m 0,9 C 7,2 C 0,0 km/h (0 Bft) 0,00 %
19.04.2015 22:00 6,4 C 70 % 1020,8 hPa 0,0 l/m 0,0 km/h (0 Bft) S 190 0 min 0,000 mm 0,0 UV-I 0 W/m 1,3 C 6,4 C 0,0 km/h (0 Bft) 0,00 %
19.04.2015 22:15 5,7 C 75 % 1021,0 hPa 0,0 l/m 0,0 km/h (0 Bft) SO 145 0 min 0,000 mm 0,0 UV-I 0 W/m 1,6 C 5,7 C 0,0 km/h (0 Bft) 0,00 %
19.04.2015 22:30 5,5 C 74 % 1021,0 hPa 0,0 l/m 0,0 km/h (0 Bft) S 176 0 min 0,000 mm 0,0 UV-I 0 W/m 1,2 C 5,5 C 0,0 km/h (0 Bft) 0,00 %
19.04.2015 22:45 5,7 C 70 % 1021,0 hPa 0,0 l/m 0,0 km/h (0 Bft) S 185 0 min 0,000 mm 0,0 UV-I 0 W/m 0,7 C 5,7 C 0,0 km/h (0 Bft) 0,00 %
19.04.2015 23:00 5,7 C 68 % 1021,1 hPa 0,0 l/m 0,0 km/h (0 Bft) S 182 0 min 0,000 mm 0,0 UV-I 0 W/m 0,3 C 5,7 C 0,0 km/h (0 Bft) 0,00 %
19.04.2015 23:15 5,9 C 70 % 1021,4 hPa 0,0 l/m 0,0 km/h (0 Bft) S-SW 197 0 min 0,000 mm 0,0 UV-I 0 W/m 0,9 C 5,9 C 0,0 km/h (0 Bft) 0,00 %
19.04.2015 23:30 5,0 C 76 % 1021,6 hPa 0,0 l/m 0,0 km/h (0 Bft) S 176 0 min 0,000 mm 0,0 UV-I 0 W/m 1,1 C 5,0 C 0,0 km/h (0 Bft) 0,00 %
19.04.2015 23:45 4,4 C 79 % 1021,8 hPa 0,0 l/m 0,0 km/h (0 Bft) S-SW 193 0 min 0,000 mm 0,0 UV-I 0 W/m 1,1 C 4,4 C 0,0 km/h (0 Bft) 0,00 %
_ Min-Zeit 06:15 16:30 17:00 - 00:00 - - - - - - 11:45 06:15 00:00 00:00
Minimum _ -0,5 C 35 % 1016,8 hPa - 0,0 km/h (0 Bft) - - - - - - -2,9 C -0,5 C 0,0 km/h (0 Bft) 0,00 %
_ Max-Zeit 18:00 06:00 01:15 00:00 11:00 - - 06:30 00:00 11:45 15:15 20:45 17:30 11:00 00:00
Maximum _ 13,0 C 95 % 1024,5 hPa 0,0 l/m 15,8 km/h
O (3 Bft)
- - 15 min 0,000 mm 5,0 UV-I 727 W/m 2,4 C 12,7 C 19,8 km/h
O (3 Bft)
0,00 %
Durchschnitt _ 6,9 C 65 % 1020,9 hPa #0,0 l/m 2,5 km/h (1 Bft) O - #12:15 h #0,000 mm 2,7 UV-I 432 W/m -0,1 C 6,5 C 4,0 km/h (1 Bft) 0,00 %